Theta_e
319 325 325 322 328 333 335 335 334 332 332 338 341 346 345 344 343 341 341 340 339 337 335 335 334 333 331 329 328 327 327 326 326 323 326 325 325 326 327 327 326 327 327
319 326 328 321 325 330 332 333 333 334 337 340 344 345 345 342 341 340 339 339 338 336 336 334 333 331 330 329 328 328 328 326 324 325 324 324 326 326 327 327 326 326 326
320 331 325 321 327 330 331 333 335 338 341 343 345 344 342 341 340 339 339 338 337 336 335 334 333 331 330 329 328 327 327 327 325 325 324 324 325 326 326 326 327 328 327
327 332 322 325 330 332 334 335 337 340 342 343 344 343 341 340 339 340 336 335 335 334 333 332 332 331 331 329 327 326 327 326 325 326 325 324 324 325 325 323 324 324 326
335 331 329 332 334 336 337 338 340 342 343 343 341 340 340 339 340 337 335 333 332 332 332 331 332 331 330 329 326 327 327 326 325 325 324 323 324 325 324 324 323 324 325
337 336 337 337 338 339 340 341 341 341 342 341 340 339 340 340 336 335 332 331 331 331 331 331 330 329 329 328 324 324 327 327 325 326 325 324 325 324 324 323 322 322 323
339 340 340 338 338 339 341 340 340 340 339 339 339 340 337 335 334 332 332 332 332 331 330 330 330 329 328 328 325 325 327 327 327 326 326 324 324 324 323 322 322 322 321
340 339 339 339 338 338 339 338 337 338 339 338 337 334 333 332 333 333 331 330 329 329 329 328 327 327 327 326 327 327 327 327 326 325 327 326 325 326 324 323 323 323 323
337 338 338 338 337 336 334 333 333 335 334 332 332 331 332 331 329 328 328 328 328 327 327 327 327 327 327 327 327 327 326 326 325 325 325 325 325 326 324 323 322 323 321
338 338 337 335 334 333 332 331 332 332 330 329 328 328 328 328 328 328 327 327 326 327 327 328 328 327 327 327 327 326 324 323 325 325 325 325 325 325 324 323 322 322 321
337 335 333 333 332 331 331 331 329 327 326 325 326 326 327 329 328 326 326 326 327 327 327 327 327 327 327 327 327 327 325 324 324 324 323 323 323 323 323 323 322 321 322
334 332 332 331 331 331 329 327 326 325 324 324 324 325 326 327 327 326 325 325 326 327 326 326 326 327 327 326 326 326 325 324 322 321 322 321 321 322 322 322 322 322 322
331 330 330 330 330 329 328 326 325 325 324 323 323 323 325 326 327 326 326 325 324 325 325 325 326 327 326 326 325 324 323 322 321 320 320 320 321 322 322 322 322 322 321
330 330 329 329 329 328 327 327 326 325 324 324 322 322 320 325 327 327 326 325 325 325 325 325 326 326 326 325 323 323 322 322 321 321 321 321 321 321 321 321 321 321 321
329 329 328 329 327 325 326 327 327 326 327 323 323 322 321 321 324 325 325 325 324 325 324 324 325 324 322 322 322 322 322 322 322 321 321 321 321 321 321 321 321 320 320
327 328 327 325 323 322 322 322 324 326 325 325 324 324 322 323 324 325 325 324 324 324 323 322 321 321 321 322 322 322 322 322 321 321 321 321 321 321 321 320 320 320 320
326 325 323 323 323 323 323 322 319 324 325 325 324 324 323 324 324 324 324 324 324 323 322 322 322 322 322 323 323 322 322 322 321 321 321 321 321 321 321 320 320 320 320
326 325 324 323 323 323 324 323 323 324 321 320 323 323 323 323 323 323 323 321 321 323 322 322 323 323 323 322 322 321 321 321 321 321 321 321 321 322 321 321 321 321 321
325 324 324 323 323 324 325 325 324 323 319 316 319 321 321 321 320 320 321 321 322 322 323 323 323 322 321 321 321 320 320 320 320 320 321 321 321 321 321 321 321 321 321
325 325 325 324 324 325 325 325 323 320 319 318 317 317 319 319 320 321 322 322 322 322 322 322 322 323 322 321 321 320 320 320 320 320 321 321 321 321 321 322 321 321 321
324 325 325 324 323 323 323 323 323 322 320 317 318 319 320 321 321 321 322 322 322 322 322 322 322 322 323 323 322 322 321 322 321 321 321 321 322 322 322 322 321 321 321
325 325 325 323 322 323 323 324 324 321 319 316 317 319 320 320 318 317 320 321 321 321 321 322 322 321 322 322 323 323 322 322 322 323 323 323 322 322 323 323 322 322 323
326 327 326 324 323 323 324 324 322 320 318 317 317 319 319 316 314 313 315 316 318 319 320 320 319 319 319 321 321 324 324 324 324 324 324 324 324 324 324 324 324 323 321
327 326 325 323 322 323 323 323 322 320 319 319 317 316 315 311 309 308 308 309 311 313 314 315 315 314 316 317 318 320 320 320 321 323 323 323 321 321 321 318 317 316 315
327 326 325 324 322 322 322 321 321 319 316 314 309 307 306 306 304 303 303 304 306 307 307 307 307 308 310 312 314 315 318 321 321 320 319 319 316 312 309 307 304 302 302
326 326 325 324 322 321 321 318 314 311 309 307 306 304 303 303 302 302 301 302 303 302 302 302 303 304 304 305 306 308 311 312 312 313 310 308 306 301 299 298 296 295 295
Wind_Speed
26 25 26 30 33 35 36 33 29 26 23 26 24 24 26 25 23 21 20 19 17 18 19 19 17 14 13 13 12 12 10 9 3 1 2 4 7 10 9 10 13 12 13
26 26 27 29 31 32 33 30 27 26 27 26 26 27 27 25 23 22 19 17 19 20 18 17 15 14 14 14 13 12 11 11 6 4 5 5 11 10 9 10 13 13 12
25 26 24 27 31 31 31 30 29 29 28 26 28 29 27 25 25 22 18 19 18 17 17 16 16 16 15 14 13 13 11 13 9 8 6 6 12 14 13 11 12 11 12
24 24 25 29 32 31 30 28 28 29 30 30 29 28 26 27 25 22 21 18 15 15 14 14 17 19 17 16 16 14 12 13 11 11 8 10 10 16 16 16 13 11 13
22 23 26 25 27 27 25 26 29 29 30 29 29 26 26 27 27 25 18 15 14 12 12 14 16 17 16 16 16 13 14 15 14 13 11 8 9 15 16 13 15 15 14
22 19 21 23 22 24 24 27 28 28 30 29 29 28 26 27 25 22 17 15 12 12 12 13 14 15 16 15 14 13 17 21 16 11 11 12 11 14 17 20 19 12 4
18 21 23 23 21 22 26 29 29 31 33 31 29 27 24 22 20 17 16 13 11 9 8 8 10 13 15 15 15 12 14 17 17 22 18 17 16 21 24 22 14 9 7
21 20 26 26 25 25 28 29 31 33 33 32 31 27 22 18 17 17 14 10 8 8 8 9 9 11 12 13 14 16 15 15 15 17 17 21 20 23 23 22 18 15 16
14 19 20 26 28 29 28 28 31 34 33 31 30 25 23 21 17 13 11 11 11 10 8 8 8 8 10 12 17 18 16 14 13 12 10 14 14 20 22 22 15 17 6
12 19 22 27 31 28 30 31 32 34 32 29 25 23 22 21 16 13 12 14 13 11 9 8 7 6 11 12 14 18 17 13 13 12 12 12 11 16 20 23 23 15 8
13 22 24 27 31 32 32 35 34 32 31 26 24 20 18 18 16 13 12 13 13 13 13 12 9 7 10 13 15 17 18 16 15 15 16 15 15 18 17 18 23 22 12
19 22 26 30 31 32 33 31 33 33 28 21 21 20 15 17 14 13 11 9 11 13 13 11 9 9 10 10 13 13 16 14 15 17 18 17 17 17 14 13 17 17 15
26 22 28 29 29 31 33 29 27 28 23 19 17 17 17 15 15 12 10 9 10 10 11 11 11 13 13 14 14 17 16 15 17 17 17 16 16 15 13 11 11 10 9
26 23 26 27 27 28 30 30 26 22 20 19 17 16 15 15 14 13 12 12 11 12 13 13 15 15 13 17 17 14 13 15 17 17 16 15 14 14 13 12 12 11 9
25 27 26 29 29 28 25 20 25 24 28 24 19 19 18 14 15 15 15 14 14 15 17 17 16 17 20 17 14 13 13 13 15 15 16 17 16 15 13 12 12 13 8
26 25 24 25 25 27 27 23 17 19 19 19 20 18 17 17 16 15 13 12 14 17 17 17 17 18 17 17 15 13 11 11 12 14 14 16 17 15 14 12 11 12 8
23 24 25 25 23 22 20 20 18 19 16 13 14 12 14 18 15 15 15 13 16 16 17 17 17 17 18 15 14 12 12 10 10 12 13 15 15 13 12 12 10 10 10
28 29 24 23 22 19 18 18 20 19 16 18 17 19 18 14 14 15 14 17 14 14 16 17 18 17 16 15 13 11 10 10 9 10 12 13 14 14 14 12 13 11 10
26 22 25 24 22 23 20 19 20 20 19 23 23 21 17 14 15 16 16 15 15 16 15 16 16 14 12 12 11 9 9 8 8 9 10 11 13 13 12 11 9 9 8
26 29 28 24 22 21 21 21 21 21 19 18 21 22 22 23 17 12 13 13 14 14 15 15 11 9 9 9 9 9 9 8 8 9 9 9 11 12 11 9 8 8 8
26 26 28 20 20 20 20 19 21 20 19 20 23 22 22 21 15 10 11 12 13 14 15 13 9 8 8 7 8 9 10 9 9 9 9 9 9 9 9 9 9 9 8
25 23 22 21 22 21 21 23 22 21 22 22 23 22 20 16 14 17 18 16 14 15 14 12 10 9 6 3 3 7 7 7 6 7 6 7 9 10 9 9 8 8 9
25 24 22 21 23 26 22 22 22 22 22 23 23 21 20 17 18 18 19 18 18 17 15 12 11 8 6 5 6 8 7 6 5 6 6 7 9 10 10 9 8 5 3
24 24 22 22 22 23 22 22 24 26 26 22 22 23 21 20 21 21 21 22 22 20 18 15 14 12 10 11 11 10 8 6 6 6 4 4 4 4 7 8 9 8 7
25 25 23 23 23 22 24 23 23 24 24 25 23 24 22 22 22 22 22 22 24 24 23 22 22 21 20 19 18 16 12 9 9 10 13 14 15 16 16 17 16 16 14
22 24 24 23 26 25 22 23 24 26 26 25 25 24 24 25 24 24 24 24 25 25 26 25 24 24 24 23 20 17 15 14 14 13 17 19 21 21 20 20 19 20 19
Wind_Direction
281 271 257 245 238 233 231 233 228 226 218 209 205 192 188 188 195 197 193 191 200 201 198 204 199 200 200 203 198 204 207 196 161 141 124 131 131 132 152 173 175 174 178
276 271 255 240 237 229 227 227 224 217 207 202 193 184 185 189 187 192 184 193 191 192 195 197 198 196 199 201 202 210 211 203 168 148 160 148 153 144 145 144 153 161 168
270 262 244 232 225 222 218 213 210 202 195 191 186 184 183 188 190 186 183 181 188 196 200 203 205 200 200 200 205 208 211 206 192 161 149 151 136 159 142 134 136 142 153
263 240 222 214 211 208 205 201 197 191 184 182 181 183 188 189 189 176 177 185 193 202 211 216 213 210 210 204 201 204 203 201 186 156 137 151 152 147 145 137 130 137 134
236 212 206 201 197 190 182 179 179 179 179 177 176 183 188 185 183 179 177 184 193 202 211 217 221 222 221 215 206 201 195 188 167 150 147 156 161 148 148 157 142 141 135
208 194 179 170 167 159 156 160 165 166 170 173 175 177 180 178 178 181 182 185 195 205 216 224 228 221 213 204 208 216 210 191 171 160 169 174 163 153 158 154 145 140 121
179 182 159 157 156 149 152 152 154 161 163 166 171 170 166 170 174 184 183 190 198 207 214 211 201 200 196 202 207 209 208 213 219 196 174 180 165 171 164 160 165 151 142
164 176 151 153 146 149 150 149 153 158 158 160 158 161 161 159 164 169 172 179 181 175 177 183 185 188 199 204 203 198 195 198 204 203 205 189 183 181 182 172 164 139 137
163 159 158 150 146 147 144 142 143 144 151 153 156 156 152 152 156 159 162 158 157 162 166 170 178 193 200 207 201 188 175 182 190 200 208 199 194 183 181 168 155 136 128
169 151 152 149 147 142 140 138 137 148 149 153 144 150 153 145 146 149 155 154 147 145 147 154 159 175 167 148 161 170 163 166 172 167 169 173 182 182 184 185 174 155 142
163 144 140 142 136 135 131 138 141 142 141 137 135 139 140 144 142 145 156 155 148 146 147 140 128 138 163 175 182 191 177 160 155 152 150 156 165 173 183 192 189 192 171
142 138 137 131 131 129 131 135 139 137 126 121 117 122 133 143 146 157 161 161 161 155 154 140 134 142 142 147 157 158 148 148 147 151 149 155 164 174 181 185 196 202 205
136 144 129 129 130 138 130 130 126 130 126 124 126 129 137 151 156 160 160 164 167 165 154 146 143 145 135 131 133 142 142 142 149 143 145 158 171 170 168 172 188 201 197
143 138 131 131 128 127 130 134 130 127 128 133 132 136 147 147 157 165 162 160 157 155 149 147 146 147 144 136 140 146 150 155 158 158 162 162 159 164 163 165 169 179 188
148 141 137 126 123 121 122 131 141 152 159 151 153 155 153 158 173 170 166 162 157 151 145 145 144 137 137 142 143 139 139 143 152 160 166 168 168 169 172 175 181 181 181
135 130 128 127 127 126 121 110 126 144 153 158 158 159 162 163 163 160 161 160 156 153 148 144 139 140 141 148 145 140 142 145 155 164 168 172 172 178 177 181 186 195 200
127 128 130 128 126 124 123 124 111 116 132 133 144 147 151 153 157 158 155 151 158 160 146 141 136 147 152 156 156 155 151 157 160 170 174 177 177 178 182 187 192 199 213
130 132 128 129 128 126 128 130 133 129 122 120 133 134 132 135 145 153 153 151 145 156 150 146 152 159 159 160 161 157 156 161 166 176 182 184 187 186 188 203 212 210 214
123 121 125 124 125 124 122 126 129 123 123 128 128 127 124 128 133 143 145 145 145 142 148 153 155 155 157 160 156 158 162 170 178 180 189 194 198 198 204 214 225 229 237
128 136 130 120 119 119 123 120 121 123 127 121 122 124 127 127 126 126 137 145 148 149 151 149 145 141 147 162 169 164 166 172 183 191 194 199 206 215 225 232 235 231 242
121 125 123 114 119 123 126 127 126 124 119 120 129 135 138 132 113 109 138 141 141 143 140 137 139 131 124 123 156 165 170 165 168 176 192 199 203 211 219 226 232 235 253
127 125 122 120 124 122 127 128 124 121 124 125 132 137 138 118 101 107 115 115 128 133 140 144 140 142 138 119 116 173 170 181 187 192 200 213 217 218 222 233 243 257 269
127 122 118 116 120 122 119 119 121 120 120 123 127 121 121 108 105 110 109 113 120 127 133 135 130 125 115 105 108 134 155 170 187 204 218 224 230 238 238 238 243 230 194
129 126 121 122 125 124 120 119 120 124 124 123 122 126 120 114 112 112 114 114 115 116 117 114 107 102 103 100 104 115 118 109 96 94 89 111 105 131 141 122 113 106 93
134 129 126 126 127 125 124 123 121 121 119 122 121 120 123 118 112 111 110 109 109 109 105 103 98 95 92 91 90 93 99 105 114 112 110 108 100 95 95 96 92 85 78
127 128 129 128 128 124 123 117 112 115 115 118 125 125 120 117 119 117 116 114 110 104 101 97 94 95 96 92 88 87 87 90 95 101 105 104 100 95 91 87 83 78 71